Regional Weather Roundup
Issued by NWS Binghamton, NY

Home | Current Version | Previous Version | Text Only | Print | Product List | Glossary On
Versions: 1 2 3 4 5 6 7 8 9 10 11 12 13 14 15 16 17 18 19 20 21 22 23 24 25 26 27 28 29 30 31 32 33 34 35 36 37 38 39 40 41 42 43 44 45 46 47 48 49 50
000
ASUS41 KBGM 221910
RWRBGM
RWRBGM
BINGHAMTON REGIONAL WEATHER ROUNDUP
NATIONAL WEATHER SERVICE BINGHAMTON NY
200 PM EST MON DEC 22 2014

Note: "fair" indicates few or no clouds below 12,000 feet with no
significant weather and/or obstructions to visibility.

* = Station(s) that does not report precipitation, such as rain,
snow, etc, also no thunder or fog.

!NYZ009-015>018-022>025-036-037-044>046-055>057-062-222000
...CENTRAL NEW YORK...

CITY           SKY/WX    TMP DP  RH WIND       PRES   REMARKS
BINGHAMTON     MOSUNNY   34  27  75 SE10      30.13F WCI  26
CORTLAND       FAIR      36  30  80 SE6       30.16F WCI  31
DANSVILLE      SUNNY     38  25  59 SE13      30.11F WCI  30
ELMIRA         CLOUDY    36  25  64 SE6       30.14F WCI  31
ITHACA         MOSUNNY   37  27  68 SE9       30.15F WCI  30
HAMILTON       CLOUDY    39  30  70 S8        30.16F WCI  34
MONTICELLO     CLOUDY    32  32 100 SE7       30.21R WCI  26
NORWICH        CLOUDY    37  28  70 S10       30.17F WCI  30
ONEONTA        PTSUNNY   37  28  70 SE6       30.15F WCI  33
PENN YAN       PTSUNNY   37  25  61 SE9       30.14F WCI  30
ROME           CLOUDY    36  28  73 E12       30.23F WCI  28
SIDNEY         PTSUNNY   41  34  75 SW3       30.18S
SYRACUSE       MOSUNNY   39  29  67 SE16      30.18F WCI  30
$$

!PAZ038>040-043-044-047-048-072-222000
...NORTHEAST PENNSYLVANIA...

CITY           SKY/WX    TMP DP  RH WIND       PRES   REMARKS
HAZLETON       SUNNY     36  27  69 E8        30.17F WCI  29
SCRANTON       MOSUNNY   40  28  62 S9        30.17F WCI  34
TOWANDA*       SUNNY     39  25  56 E6        30.16F WCI  35
$$
&&
KEY
WCI = WIND CHILL INDEX
VSB = VISIBILITY
HX  = HEAT INDEX
$$



USA.gov is the U.S. government's official web portal to all federal, state and local government web resources and services.